Terminal Aerodrome Forecast
Issued by NWS

Home | Current Version | Previous Version | Text Only | Print | Product List | Glossary On
Versions: 1 2 3 4 5 6 7 8 9 10 11 12 13 14
855
FTUS46 KMTR 111933 AAA
TAFSNS
TAF AMD
KSNS 111933Z 1120/1218 12012KT P6SM SKC
     FM112100 27008KT P6SM SCT200
     FM120600 11005KT P6SM SCT250=

USA.gov is the U.S. government's official web portal to all federal, state and local government web resources and services.